Theta_e
320 311 314 308 298 296 291 294 299 301 306 308 307 310 311 313 310 306 328 334 335 335 341 346 348 349 349 348 347 344 342 340 339 337 336 337 339 339 338 337 339 338 338 339 338 337 335 336 335
310 316 311 303 294 288 289 295 298 301 304 304 307 311 311 312 322 325 328 335 335 336 342 345 345 349 349 348 346 345 342 340 339 338 336 337 337 336 334 335 336 336 336 337 336 337 334 335 337
309 312 305 298 290 289 289 296 301 303 304 304 309 316 315 316 323 325 331 335 336 337 341 343 343 348 349 348 346 345 343 341 338 338 336 335 334 334 333 334 335 336 336 336 336 335 334 338 338
311 309 304 296 293 296 293 297 301 302 305 303 305 307 321 325 325 330 335 335 336 338 341 340 344 348 348 347 346 345 343 342 340 337 335 336 333 333 336 336 336 336 336 335 335 333 337 338 338
308 303 295 294 294 296 299 301 301 301 302 302 303 303 315 324 328 329 334 335 334 338 340 341 342 346 347 347 346 345 344 343 341 340 337 333 337 337 336 336 336 336 336 334 334 333 338 339 338
303 300 292 289 291 297 299 298 299 301 303 303 303 302 315 325 311 321 331 334 336 337 340 340 337 340 343 344 344 344 343 342 341 339 338 336 337 338 336 336 336 336 336 334 333 333 338 338 338
300 295 291 291 291 294 298 296 300 298 299 302 301 302 316 314 309 305 329 334 336 337 338 340 341 340 334 338 339 341 341 340 339 339 338 336 336 337 336 335 336 336 336 335 332 335 337 337 338
301 298 292 292 291 292 297 293 301 297 298 300 303 302 311 304 300 301 319 329 334 334 336 338 340 341 341 342 333 335 337 337 337 336 334 331 331 332 332 331 334 336 337 336 334 336 337 337 338
301 293 288 290 290 292 294 292 296 296 294 297 299 303 301 297 299 301 304 307 320 330 333 335 338 338 340 341 337 331 332 333 332 332 329 327 332 331 328 327 330 334 335 335 335 336 337 335 333
295 288 289 293 294 293 291 291 292 292 292 292 294 300 297 296 297 298 299 299 303 309 323 332 334 336 337 338 339 338 339 337 335 334 334 332 330 331 328 323 325 330 330 332 335 335 333 330 332
294 289 292 292 292 291 290 289 291 289 288 290 291 294 293 294 295 295 296 298 300 302 309 306 321 332 335 335 336 337 339 338 336 334 332 330 328 328 328 327 325 328 324 333 335 333 332 330 329
289 292 291 293 292 290 289 289 288 288 290 292 292 292 292 293 292 293 294 295 297 299 300 302 303 313 329 335 335 335 334 336 335 335 331 328 325 324 326 326 327 325 330 332 333 330 329 328 327
287 288 289 290 289 288 289 287 287 287 290 291 291 291 291 291 291 292 293 295 295 295 298 299 301 302 311 326 333 333 334 333 334 333 332 331 326 324 323 325 326 326 328 331 331 327 325 325 324
288 289 288 288 289 289 286 285 286 288 289 289 289 290 290 290 291 291 292 292 293 294 296 297 298 300 302 311 323 329 329 332 333 332 332 329 328 324 324 322 324 325 327 329 330 327 324 324 322
289 285 285 286 286 286 285 282 282 287 288 287 287 288 289 290 290 290 292 292 293 295 295 296 297 298 299 301 310 321 328 329 331 333 331 329 327 325 325 324 321 324 326 328 330 328 325 322 321
282 282 280 283 284 285 284 280 285 286 286 286 287 288 289 289 290 290 291 292 293 294 294 296 296 298 298 300 304 313 323 328 330 331 333 330 327 326 323 323 322 322 323 327 327 326 323 320 318
279 277 278 279 284 284 283 280 284 286 286 286 286 287 287 287 289 291 292 292 293 293 293 294 296 297 298 299 302 307 314 321 326 329 330 330 330 327 324 323 322 321 321 323 325 323 322 319 316
277 276 277 276 280 282 280 280 284 286 285 285 286 286 285 286 288 291 292 293 293 293 292 293 295 296 299 301 302 305 307 311 318 323 325 327 328 327 326 323 323 321 320 321 322 320 321 319 314
279 279 277 278 282 281 280 280 282 286 284 283 283 283 285 286 289 290 291 292 294 295 294 293 297 299 300 302 303 304 306 308 311 315 318 321 324 327 325 323 322 321 320 320 322 320 317 314 306
280 278 275 280 281 281 279 279 283 282 282 283 283 284 284 286 288 290 291 291 293 296 298 298 297 297 298 300 301 303 304 307 307 307 308 310 315 320 324 322 320 321 320 320 321 318 315 306 305
279 278 277 277 281 280 277 278 279 281 283 284 285 286 286 287 288 289 289 290 293 294 294 294 295 296 296 298 299 300 300 300 301 302 303 306 309 313 318 320 320 318 319 319 320 318 314 302 304
277 280 280 279 275 269 277 271 277 279 280 283 284 285 286 286 287 287 288 290 292 294 293 292 294 295 296 296 297 297 296 295 297 297 299 302 305 308 314 316 314 315 316 318 319 318 313 306 303
278 281 280 280 272 267 269 268 276 278 280 282 283 285 285 285 285 286 287 289 290 291 292 293 293 293 294 295 295 295 295 296 297 297 297 298 300 302 303 308 314 313 314 317 315 316 314 311 308
282 279 278 275 270 266 267 269 274 278 279 280 282 283 284 284 285 286 287 288 289 290 291 292 291 292 293 294 294 294 294 294 294 295 295 297 298 300 302 304 309 313 313 314 316 317 314 313 310
280 275 268 269 267 270 272 268 276 280 279 280 281 283 283 283 284 285 285 286 288 288 289 290 290 290 292 292 293 293 294 294 294 294 294 295 296 297 299 302 303 310 312 312 311 314 312 311 310
277 275 269 265 266 268 272 268 277 280 281 281 281 282 282 283 283 284 285 286 287 288 289 289 290 290 291 291 292 293 293 294 294 294 294 295 296 297 299 300 302 304 312 312 311 311 312 312 309
277 274 275 264 259 263 269 272 277 280 280 280 280 281 282 282 283 285 285 285 286 287 288 289 290 290 290 291 292 292 293 293 293 294 295 295 296 296 297 299 300 302 308 312 311 310 309 310 309
278 279 272 268 265 263 268 268 275 279 279 280 279 280 280 282 284 284 284 285 287 288 289 289 290 290 291 292 292 291 291 292 292 293 293 294 295 294 295 296 298 300 305 309 311 311 311 309 308
276 275 274 273 270 266 264 275 276 278 280 280 280 280 281 283 282 283 285 286 287 288 289 291 291 290 289 290 290 290 290 290 291 291 292 293 294 294 294 295 296 298 300 307 309 309 309 308 306
278 276 275 269 267 268 268 272 281 280 280 280 280 282 282 281 282 283 284 285 286 289 290 289 288 288 288 288 288 289 290 289 289 289 290 292 292 293 294 295 295 296 298 303 307 307 307 306 305
Wind_Speed
8 6 1 5 4 4 3 4 1 2 1 2 4 2 2 2 2 1 3 7 1 9 11 11 11 15 15 15 15 15 14 13 12 11 11 10 10 10 10 9 10 9 11 12 13 13 14 14 14
5 4 4 3 4 2 4 3 2 2 3 8 2 1 1 1 2 3 3 5 3 10 11 12 13 16 15 14 14 13 13 13 13 12 13 11 11 10 9 9 9 9 11 11 12 13 14 14 14
3 4 4 4 3 4 4 3 2 5 6 3 2 1 2 2 3 5 7 5 6 9 9 9 9 14 16 16 16 14 13 12 13 11 12 13 12 12 11 11 10 12 12 13 13 13 14 13 14
3 4 4 4 4 5 4 2 3 8 1 6 4 2 4 6 3 7 8 4 6 6 7 8 11 12 14 15 17 17 16 14 13 13 12 11 11 11 12 13 11 12 13 13 13 15 15 13 13
3 3 3 2 4 5 3 2 4 4 4 3 4 1 3 3 5 8 5 2 5 7 8 7 8 10 12 14 15 16 17 16 15 14 13 12 12 12 12 13 12 14 15 14 15 15 15 15 13
4 3 3 3 5 4 4 3 2 3 3 4 3 2 1 1 10 10 4 1 3 6 6 7 8 7 10 13 14 15 16 16 15 15 13 13 11 12 12 13 14 13 15 16 16 17 15 14 12
6 4 4 3 3 4 2 5 1 3 4 1 1 2 2 3 8 9 6 2 0 2 3 4 7 9 7 9 11 13 14 15 16 15 14 13 12 12 12 12 11 13 16 16 16 15 14 13 12
4 4 3 3 3 5 2 5 2 1 4 6 2 3 2 3 9 6 3 4 0 2 4 5 5 7 8 8 11 12 11 12 13 13 12 11 12 13 13 11 12 12 13 16 15 15 15 13 13
3 4 2 4 6 3 2 4 1 1 3 4 3 0 4 6 8 6 5 5 4 2 3 4 7 8 10 9 9 12 15 16 14 13 13 12 9 11 11 10 12 13 15 14 16 16 15 13 14
4 3 7 3 3 3 2 2 3 3 2 4 4 4 3 3 4 6 5 5 3 3 4 3 5 7 8 7 10 11 11 10 11 12 13 10 10 10 11 10 14 13 13 14 16 15 14 11 7
3 5 3 2 3 2 3 3 3 2 6 9 6 3 5 3 5 3 4 4 6 4 2 4 4 6 7 5 6 4 6 7 8 12 12 11 9 8 8 7 7 6 11 7 10 11 7 9 7
2 1 2 2 1 2 3 4 5 9 9 2 4 2 3 4 5 6 7 6 6 7 8 6 5 5 7 6 5 5 6 6 7 10 13 10 8 9 9 8 9 8 6 9 9 6 9 11 10
1 2 3 3 7 5 4 7 8 10 12 6 7 7 7 6 7 7 8 10 8 8 10 10 3 6 6 7 6 5 6 7 9 9 12 11 11 11 10 10 9 9 9 9 10 9 10 10 11
1 3 5 3 4 4 5 5 2 6 4 3 5 7 7 8 8 6 7 10 9 8 9 8 8 6 5 6 8 7 6 7 7 8 11 15 12 12 12 12 12 11 10 10 11 11 9 9 11
1 5 5 1 3 3 5 8 12 9 4 4 6 7 9 8 7 10 7 9 8 9 8 9 7 6 6 6 7 6 7 7 8 9 9 12 14 11 12 12 12 12 11 13 11 13 11 9 10
4 3 4 1 6 2 2 12 4 2 2 7 9 12 10 13 8 8 7 9 7 9 9 8 5 6 6 5 5 5 6 7 7 8 8 11 12 15 16 14 14 13 11 11 12 12 11 10 10
6 3 2 8 4 4 3 11 6 4 4 15 10 12 8 11 11 8 7 6 8 8 8 8 6 6 6 6 4 5 7 6 7 7 8 11 12 13 11 12 14 15 13 11 12 11 13 12 9
3 4 4 6 3 3 6 21 27 12 11 15 14 10 8 8 12 8 8 7 7 6 7 7 5 5 4 3 2 2 3 4 5 6 7 11 8 12 11 9 12 13 14 14 12 13 11 14 11
4 1 5 5 2 6 5 13 25 21 12 11 8 7 7 8 6 7 6 6 7 5 5 6 4 4 3 2 2 2 2 3 3 4 7 8 8 10 11 10 8 9 14 16 18 14 16 9 12
2 1 6 6 2 3 8 22 25 10 6 4 6 6 6 4 6 7 6 6 7 7 6 6 6 5 3 2 3 3 3 4 4 4 6 8 8 9 9 10 9 11 8 16 19 15 8 5 14
3 4 2 5 8 1 10 9 8 3 4 4 5 5 5 6 6 7 8 8 7 7 7 6 6 6 5 6 3 3 2 2 3 6 7 9 9 9 9 9 7 8 8 8 18 24 24 9 14
3 3 2 4 5 4 6 9 11 3 9 7 8 7 7 4 3 5 8 9 8 10 6 7 8 9 9 8 6 9 10 10 9 9 9 7 7 10 9 9 10 10 8 11 11 14 18 15 14
3 1 1 2 4 4 6 4 14 2 6 5 6 7 7 8 5 8 8 8 9 10 10 10 11 11 12 10 10 9 12 10 9 10 11 13 11 10 11 11 12 11 10 11 15 9 17 17 15
1 2 3 3 3 4 3 4 9 5 4 3 2 3 3 5 6 8 9 9 9 9 10 11 12 14 13 12 13 14 15 14 11 11 11 11 11 9 10 12 12 13 12 12 9 14 17 15 21
1 4 5 8 6 6 2 1 15 8 5 5 5 6 7 7 7 8 12 13 11 12 13 11 12 15 15 13 13 14 16 16 17 16 13 13 11 10 11 11 12 12 15 14 12 11 15 15 16
1 4 7 6 3 6 1 9 10 6 6 8 8 9 7 9 7 10 13 12 14 15 13 15 16 17 16 15 14 14 14 11 13 16 14 12 10 10 12 12 13 16 16 15 14 12 13 16 13
2 2 3 8 2 3 4 8 14 5 7 6 9 7 11 7 10 14 15 12 14 14 16 17 18 18 16 14 14 14 14 15 14 17 14 10 13 11 12 14 15 15 15 16 16 13 15 14 18
1 6 4 4 2 7 7 8 8 5 6 3 5 8 7 9 13 12 12 12 12 14 16 15 14 17 18 18 16 16 15 15 15 16 18 18 16 15 15 15 15 15 15 17 15 13 16 17 14
3 3 3 3 4 5 5 10 10 9 6 7 8 7 9 13 12 13 13 12 14 15 13 16 16 17 16 16 16 16 15 14 15 16 17 17 16 15 15 15 15 15 15 15 16 15 16 18 17
2 6 6 6 6 3 1 17 5 8 7 5 9 9 9 10 10 11 11 13 15 16 18 17 16 15 16 16 18 16 15 15 15 16 17 17 17 16 15 13 13 15 16 16 17 18 15 17 18
Wind_Direction
327 326 40 39 61 62 268 251 241 337 303 183 284 232 156 124 159 222 341 184 289 163 170 174 170 168 168 161 159 159 160 161 166 166 164 166 150 155 154 156 167 173 148 144 146 142 137 131 139
323 353 45 84 85 78 264 269 161 254 281 312 213 241 165 92 3 344 13 187 190 165 172 173 166 164 167 163 160 163 164 165 170 178 172 170 162 171 172 168 181 148 153 154 154 146 147 151 142
343 35 74 81 103 183 227 225 303 287 297 288 11 90 53 7 21 358 355 174 157 166 174 181 172 168 166 164 165 168 166 168 170 173 177 176 182 176 177 166 178 162 159 159 159 158 159 157 148
29 18 54 91 215 251 216 223 341 322 6 32 348 30 71 81 1 320 326 141 154 164 180 183 181 178 175 173 170 170 169 173 174 177 187 193 189 184 172 171 178 164 161 169 161 163 160 151 154
34 57 83 88 247 267 243 248 313 287 288 330 339 328 102 44 336 2 17 97 169 175 178 185 194 191 183 181 180 177 176 178 176 184 183 194 194 182 177 175 185 171 168 171 165 175 164 157 171
51 93 91 211 232 251 278 35 283 252 315 329 20 342 169 14 21 354 342 217 192 189 180 185 196 204 197 189 188 185 184 184 182 182 190 186 191 185 185 184 188 182 172 177 173 179 171 175 181
117 96 203 198 238 289 261 341 270 316 281 253 294 243 206 10 5 347 358 357 159 161 192 203 202 211 211 196 196 194 194 193 188 186 189 189 187 188 185 187 198 194 183 175 182 181 186 185 181
103 92 145 222 189 253 303 330 213 197 269 307 205 232 218 351 325 338 13 40 22 182 193 211 222 230 228 212 197 195 197 197 195 195 191 191 195 185 184 188 206 192 193 177 182 183 190 191 182
132 71 207 231 169 231 331 5 249 321 279 315 275 108 170 326 343 14 19 10 9 343 250 228 233 234 227 228 224 209 197 191 194 199 196 199 201 191 186 188 189 210 189 187 184 190 191 187 145
88 131 214 207 196 214 262 208 308 322 225 260 272 237 341 8 30 19 1 338 337 330 318 269 247 243 234 233 230 230 213 213 204 196 200 204 199 195 181 186 192 203 198 186 189 193 191 151 147
169 197 192 227 195 174 226 252 222 240 261 221 213 232 324 329 352 18 338 310 299 303 283 308 300 261 246 239 239 226 229 210 209 209 200 200 197 196 192 187 191 199 200 194 197 199 168 151 153
220 169 178 291 99 302 254 320 260 206 236 184 214 282 269 272 300 301 300 277 281 289 278 266 273 272 253 248 239 244 218 212 211 214 208 198 195 195 192 196 194 189 196 194 189 166 165 163 166
197 332 298 294 302 260 280 242 238 247 247 277 294 252 239 265 271 276 263 275 269 255 273 277 290 270 270 255 244 237 236 214 214 211 213 211 207 197 188 197 196 196 195 190 180 179 175 166 164
259 289 280 296 293 282 314 283 6 259 149 192 231 245 248 253 264 277 274 271 272 271 258 264 269 258 261 262 261 244 241 246 230 222 214 210 217 201 197 194 195 195 199 194 185 177 171 168 168
22 328 319 217 9 309 339 280 228 251 217 249 271 275 277 261 256 241 258 264 260 270 278 274 274 266 245 242 247 245 239 240 241 234 226 227 204 215 216 208 199 199 197 195 182 180 174 166 174
33 50 350 17 6 323 42 277 286 159 33 287 286 291 300 298 283 276 256 261 259 259 256 270 275 289 287 272 267 268 255 243 251 251 231 214 231 219 205 215 201 201 193 197 180 182 178 169 175
17 278 298 319 30 318 190 281 190 134 298 280 271 272 271 286 298 282 275 255 265 255 258 260 245 246 238 233 235 238 240 243 246 253 253 240 215 210 237 234 202 198 194 195 189 185 181 171 166
309 318 298 250 325 323 258 265 282 275 228 254 259 269 279 283 271 280 294 293 295 277 254 248 242 248 263 282 286 270 281 269 264 254 249 263 240 215 209 215 243 196 197 189 193 186 194 175 156
121 243 264 258 323 317 247 275 283 295 280 265 244 254 269 266 280 289 300 303 300 283 266 248 223 215 197 214 232 238 232 258 233 241 273 274 257 243 224 216 204 230 205 197 193 184 177 181 145
126 274 274 278 237 266 308 293 280 297 282 275 251 244 240 267 298 310 320 308 299 284 265 259 256 261 249 208 224 224 204 246 267 263 256 252 264 257 246 242 216 205 223 209 188 177 175 140 179
217 191 250 253 323 160 306 294 318 341 327 305 259 236 234 242 291 313 317 308 293 268 262 271 272 270 262 248 264 261 238 241 254 257 257 247 235 248 243 234 229 216 215 242 212 181 174 172 187
274 187 194 298 36 280 14 279 296 308 300 254 242 235 242 266 252 275 294 289 281 264 263 268 273 274 270 243 226 232 255 259 250 247 252 244 233 242 232 224 219 233 220 223 223 203 169 158 189
215 133 240 107 105 48 332 60 271 352 281 250 246 239 233 230 234 260 258 266 277 280 272 270 262 257 260 252 236 243 251 258 259 256 250 255 254 232 233 233 224 220 226 228 227 207 204 175 182
102 140 70 67 106 26 239 123 277 250 209 288 231 200 241 279 282 272 267 269 270 274 270 270 273 275 271 260 253 247 249 250 250 246 249 247 243 241 234 229 234 223 221 223 206 209 197 220 189
76 39 330 348 6 229 135 26 249 273 244 237 263 259 269 270 287 282 293 297 294 284 278 273 271 274 272 262 256 256 256 256 257 259 254 249 242 238 239 227 230 230 223 218 211 194 190 193 217
119 142 154 237 260 276 50 238 252 229 262 250 254 263 281 297 287 279 284 289 292 291 288 281 280 281 279 273 269 270 264 266 265 259 253 248 240 240 237 235 231 234 227 216 211 200 191 190 195
167 114 131 101 68 16 225 273 282 278 263 259 251 265 274 274 276 286 291 291 287 283 289 292 293 290 287 285 287 279 277 269 263 258 248 246 250 250 244 238 233 234 234 220 210 206 194 193 201
224 148 75 3 316 290 279 274 241 276 238 204 218 244 269 272 289 292 294 298 292 293 296 296 296 293 293 292 287 283 276 270 268 263 258 254 249 243 245 237 232 231 233 228 211 204 194 194 195
147 204 73 109 156 193 300 268 209 224 215 233 242 250 269 278 285 291 304 300 300 299 304 312 303 304 299 293 286 280 274 272 270 261 259 257 254 247 235 230 231 229 233 230 216 202 182 189 188
196 197 167 138 232 233 157 265 198 225 250 241 247 267 273 272 283 294 302 308 306 312 319 311 306 304 300 295 291 280 270 260 255 254 250 251 248 243 232 224 229 230 232 236 215 205 185 189 194